This demonstration page uses our WeatherBlox Daily Observations layout. Learn more.

Left ArrowRight Arrow

39.29038, -76.61219

Hourly Observations for August 24, 2015

Temp ( °F °C ) Dew Point ( °F °C ) Humidity (%) Winds ( mph kmh ) Pressure ( in mb ) Visibility ( mi km ) Precip ( " mm )
12:54 am 00:54 undefined 75 23.9 61 16.1 62 62 undefined N/A 29.93 1014 N/A 0.00 0.00
1:54 am 01:54 undefined 75 23.9 61 16.1 62 62 undefined N/A 29.92 1013 N/A 0.00 0.00
2:54 am 02:54 undefined 74 23.3 60 15.6 62 62 undefined N/A 29.92 1013 N/A 0.00 0.00
3:54 am 03:54 undefined 74 23.3 60 15.6 62 62 undefined N/A 29.90 1013 N/A 0.00 0.00
4:54 am 04:54 undefined 74 23.3 61 16.1 64 64 undefined N/A 29.90 1012 N/A 0.00 0.00
5:54 am 05:54 undefined 74 23.3 61 16.1 64 64 undefined N/A 29.91 1013 N/A 0.00 0.00
6:54 am 06:54 undefined 74 23.3 62 16.7 67 67 undefined N/A 29.91 1013 N/A 0.00 0.00
7:54 am 07:54 undefined 76 24.4 62 16.7 62 62 undefined N/A 29.91 1013 N/A 0.00 0.00
8:54 am 08:54 undefined 76 24.4 63 17.2 64 64 undefined N/A 29.91 1013 N/A 0.00 0.00
9:54 am 09:54 undefined 79 26.1 64 17.8 60 60 undefined N/A 29.91 1013 N/A 0.00 0.00
10:54 am 10:54 undefined 82 27.8 65 18.3 56 56 undefined N/A 29.90 1013 N/A 0.00 0.00
11:54 am 11:54 undefined 84 28.9 66 18.9 55 55 undefined N/A 29.89 1012 N/A 0.00 0.00
12:54 pm 12:54 undefined 86 30 67 19.4 53 53 undefined N/A 29.88 1012 N/A 0.00 0.00
1:54 pm 13:54 undefined 88 31.1 67 19.4 50 50 undefined N/A 29.86 1011 N/A 0.00 0.00
2:54 pm 14:54 undefined 87 30.6 68 20 53 53 undefined N/A 29.84 1011 N/A 0.00 0.00
3:54 pm 15:54 undefined 85 29.4 68 20 57 57 undefined N/A 29.82 1010 N/A 0.00 0.00
5:54 pm 17:54 undefined 86 30 69 20.6 57 57 undefined N/A 29.81 1010 N/A 0.00 0.00
6:54 pm 18:54 undefined 84 28.9 69 20.6 61 61 undefined N/A 29.80 1009 N/A 0.00 0.00
7:54 pm 19:54 undefined 74 23.3 72 22.2 94 94 undefined N/A 29.86 1011 N/A 0.38 9.65
8:54 pm 20:54 undefined 74 23.3 71 21.7 91 91 undefined N/A 29.85 1011 N/A 0.36 9.14
9:54 pm 21:54 undefined 73 22.8 71 21.7 94 94 undefined N/A 29.84 1011 N/A 0.30 7.62
10:54 pm 22:54 undefined 74 23.3 72 22.2 94 94 undefined N/A 29.88 1012 N/A 0.00 0.00
11:54 pm 23:54 undefined 74 23.3 72 22.2 94 94 undefined N/A 29.87 1011 N/A 0.00 0.00

Powered by AerisWeather